Regional Weather Roundup
Issued by NWS

Home | Current Version | Previous Version | Text Only | Print | Product List | Glossary On
Versions: 1 2 3 4 5 6 7 8 9 10 11 12 13 14 15 16 17 18 19 20 21 22 23 24 25 26 27 28 29 30 31 32 33 34 35 36 37 38 39 40 41 42 43 44 45 46 47 48 49 50
000
ASUS43 KMKX 280200
RWRWI

WISCONSIN REGIONAL WEATHER ROUNDUP
NATIONAL WEATHER SERVICE MILWAUKEE/SULLIVAN WI
900 PM CDT WED AUG 27 2014

NOTE: "FAIR" INDICATES FEW OR NO CLOUDS BELOW 12,000 FEET WITH NO
SIGNIFICANT WEATHER AND/OR OBSTRUCTIONS TO VISIBILITY.

WIZ001-002-006>008-014>016-023>028-280300-
NORTHWEST WISCONSIN

CITY           SKY/WX    TMP DP  RH WIND       PRES   REMARKS
SUPERIOR ARPT  CLEAR     56  54  95 CALM      30.12S
ASHLAND        CLEAR     59  51  75 SE5       30.16R
HAYWARD        CLEAR     57  55  93 CALM      30.16R
SIREN          CLEAR     59  55  85 CALM      30.15R
RICE LAKE      CLEAR     60  56  89 CALM      30.17R
LADYSMITH      CLEAR     59  55  86 CALM      30.17S
EAU CLAIRE     NOT AVBL
MENOMONIE      PTCLDY    68  56  66 N5        30.13S
NEW RICHMOND   CLEAR     63  58  82 NE3       30.14S
OSCEOLA        CLEAR     64  57  78 NE3       30.16S
$$

WIZ003>005-009-010-017-018-280300-
NORTH CENTRAL WISCONSIN

CITY           SKY/WX    TMP DP  RH WIND       PRES   REMARKS
WOODRUFF       CLEAR     57  48  73 CALM      30.18S
RHINELANDER    CLEAR     57  49  74 N5        30.18R
EAGLE RIVER    CLEAR     56  45  67 CALM      30.17S
LAND O LAKES   CLEAR     50  47  92 CALM      30.19S
PHILLIPS       CLEAR     57  52  85 NE5       30.16R
TOMAHAWK       CLEAR     54  51  92 CALM      30.17R
MEDFORD        CLEAR     55  54  95 CALM      30.16R
MERRILL        CLEAR     58  53  85 CALM      30.15S
$$

WIZ029-030-035-036-043>047-280300-
CENTRAL WISCONSIN

CITY           SKY/WX    TMP DP  RH WIND       PRES   REMARKS
WAUSAU         CLEAR     63  52  67 N5        30.13S
MOSINEE        CLEAR     64  55  72 VRB5      30.16R
MARSHFIELD     CLEAR     62  54  74 N5        30.14S
STEVENS POINT  CLEAR     59  55  85 CALM      30.14S
WAUPACA        PTCLDY    65  62  91 CALM      30.13S
WAUTOMA        NOT AVBL
WISC RAPIDS    CLEAR     62  58  86 CALM      30.14S
CAMP DOUGLAS   CLEAR     64  64 100 CALM      30.12S
$$

WIZ011>013-019>022-031-037>040-048>050-280300-
NORTHEAST WISCONSIN

CITY           SKY/WX    TMP DP  RH WIND       PRES   REMARKS
ANTIGO         CLEAR     57  54  88 CALM      30.16S
STURGEON BAY   CLEAR     59  54  82 SE3       30.15S
GREEN BAY      CLEAR     62  57  83 SE7       30.14R
MANITOWOC      NOT AVBL
APPLETON       MOCLDY    66  55  68 VRB5      30.14R
CLINTONVILLE   MOCLDY    66  59  77 CALM      30.12S
OSHKOSH        PTCLDY    64  58  80 CALM      30.12S
$$

WIZ032>034-041-042-053>061-280300-
SOUTHWEST WISCONSIN

CITY           SKY/WX    TMP DP  RH WIND       PRES   REMARKS
LA CROSSE      CLEAR     69  61  75 CALM      30.11R
SPARTA         CLEAR     64  61  90 CALM      30.12S
VIROQUA        FAIR      63  63 100 CALM      30.13S
BOSCOBEL       CLEAR     64  61  90 CALM      30.12R
PRAIRIE DU CHI PTCLDY    67  61  80 CALM      30.11R
PLATTEVILLE    FAIR      68  62  81 CALM      30.13R
$$

WIZ056-057-062-063-064-067-068-280300-
SOUTH CENTRAL WISCONSIN

CITY           SKY/WX    TMP DP  RH WIND       PRES   REMARKS
BARABOO/DELLS  PTCLDY    64  59  84 CALM      30.12S
LONE ROCK      NOT AVBL
WATERTOWN      PTCLDY    65  63  91 E7        30.11R
MADISON        PTCLDY    64  60  87 CALM      30.12R
MIDDLETON      FAIR      64  63  94 CALM      30.12R
MONROE         PTCLDY    68  61  77 E3        30.12R
JANESVILLE     CLEAR     68  61  77 NE6       30.11R
$$

WIZ051-052-058>065-066-070>072-280300-
SOUTHEAST WISCONSIN

CITY           SKY/WX    TMP DP  RH WIND       PRES   REMARKS
MILWAUKEE      PTCLDY    65  58  78 E7        30.14R
WAUKESHA       PTCLDY    63  59  88 E5        30.14R
MILWAUKEE/TIMM CLEAR     64  57  77 CALM      30.14R
RACINE         MOCLDY    65  59  81 NE6       30.15R
BURLINGTON     MOCLDY    63  61  94 E3        30.13R
KENOSHA        PTCLDY    63  61  93 NE3       30.14R
FOND DU LAC    PTCLDY    65  60  84 SE8       30.13R
SHEBOYGAN      PTCLDY    58  56  93 CALM      30.14S
WEST BEND      PTCLDY    61  55  82 NE3       30.14S
JUNEAU         PTCLDY    65  60  84 E6        30.13R
$$

LSZ147-162-280300-
LAKE SUPERIOR

STATION/POSITION TIME  TEMP    WIND        PRES    WAVE
                       AIR SEA DIR/SP/G            HT/PER
                 (UTC) (F)     (DEG/KT/KT) (MB)    (FT/S)
W MID LAKE BUOY  0050   57 56  200/  6/  6 1021.0F   0
DEVILS ISLAND    0100   61     140/  8/  9 1020.8S
PORT WING        0140   62     140/  3/  5 1020.3S
SAXON HARBOR     0100   59        CALM     1020.7
$$

LMZ867-665-643>646-280300-
LAKE MICHIGAN

STATION/POSITION TIME  TEMP    WIND        PRES    WAVE
                       AIR SEA DIR/SP/G            HT/PER
                 (UTC) (F)     (DEG/KT/KT) (MB)    (FT/S)
N MID LAKE BUOY  0050   63 67   70/  2/  4 1021.1S   0
NORTHPORT PIER   0100   64     120/  6/  8 1020.7S
SISTER BAY       0111   61     130/  6/  8   N/A
KEWAUNEE LAKESHO 0100   64     130/  5/  6 1019.7S
SHEBOYGAN LAKESH 0100   66 69   80/  7/  7 1020.7S
ATWATER BUOY     0100   68      90/  8/ 10 1021.1F
MILWAUKEE LAKESH 0100   67      60/  7/  8   N/A
S MID LAKE BUOY  0050   67 70   20/ 14/ 16 1019.6F   1/ 3
KENOSHA   LAKESH 0100   68      60/  8/ 11 1019.3F
$$

TC  - TEMPERATURE IN CELSIUS
VSB - VISIBILITY IN STATUTE MILES
WCI - WIND CHILL INDEX
HX  - HEAT INDEX




USA.gov is the U.S. government's official web portal to all federal, state and local government web resources and services.